Location: Recife
(8.0585°S, 34.8848°W)
Time: 11:56:46
(UTC-03:00)

Tiros 1 - Pass Details

Date: 20 April 2026
Orbit: 618 x 648 km, 48.4° (Epoch: 11 May)

Event Time Altitude Azimuth Distance (km) Brightness Sun altitude
Rises 05:31:16 0° 236° (SW) 2,899 9.9 1.5°
Reaches altitude 10° 05:33:49 10° 247° (WSW) 1,985 9.0 2.1°
Maximum altitude 05:37:48 30° 308° (NW) 1,114 8.1 3.1°
Drops below altitude 10° 05:41:45 10° 9° (N) 1,966 10.0 4.0°
Sets 05:44:16 0° 20° (NNE) 2,867 11.0 4.6°
